Back to catalog

JACK-002

AliveAmateur RadioSSO
NORAD 68417·PAYLOAD·🇰🇷 South Korea

Launched Mar 30, 2026 from Vandenberg Space Force Base

Loading…

Next Passes (next 24 hours)

TLE

FreshSource: AMSAT

Epoch: Sep 13, 2026, 20:14 UTC

1 68417U 26067B   26256.84331902  .00005804  00000-0  26991-3 0  9995
2 68417  97.4667 214.4420 0001961  29.1087 331.0258 15.20345854 25419

Track JACK-002 in real time with AllMySat

Download on the App Store